This demonstration page uses our WeatherBlox Daily Observations layout. Learn more.

Left ArrowRight Arrow

39.51506, -84.39828

Hourly Observations for September 27, 2015

Temp ( °F °C ) Dew Point ( °F °C ) Humidity (%) Winds ( mph kmh ) Pressure ( in mb ) Visibility ( mi km ) Precip ( " mm )
12:15 am 00:15 Cloudy 69 20.8 62 16.8 78 78 ESE 6 9 30.18 1022 10 16.0934 0 0
12:35 am 00:35 Cloudy 69 20.8 62 16.8 78 78 Calm 30.18 1022 10 16.0934 0 0
12:55 am 00:55 Cloudy 69 20.8 62 16.8 78 78 E 5 7 30.18 1022 10 16.0934 0 0
1:15 am 01:15 Cloudy 69 20.8 62 16.7 77 77 E 5 7 30.18 1022 10 16.0934 0 0
1:35 am 01:35 Cloudy 69 20.8 62 16.6 77 77 ESE 6 9 30.18 1022 10 16.0934 0 0
1:55 am 01:55 Cloudy 69 20.8 62 16.8 78 78 E 6 9 30.18 1022 10 16.0934 0 0
2:15 am 02:15 Cloudy 67 19.5 60 15.6 78 78 E 5 7 30.18 1022 10 16.0934 0 0
2:35 am 02:35 Mostly Cloudy 67 19.5 60 15.7 79 79 Calm 30.18 1022 10 16.0934 0 0
2:55 am 02:55 Mostly Cloudy 67 19.5 61 16 80 80 ENE 5 7 30.15 1021 10 16.0934 0 0
3:15 am 03:15 Mostly Cloudy 67 19.2 61 15.9 81 81 ENE 3 6 30.15 1021 10 16.0934 0 0
3:35 am 03:35 Partly Cloudy 64 18 59 15 83 83 ENE 5 7 30.15 1021 10 16.0934 0 0
3:55 am 03:55 Partly Cloudy 64 18 59 15 83 83 E 5 7 30.15 1021 10 16.0934 0 0
4:15 am 04:15 Clear 64 17.9 59 15.1 84 84 ENE 3 6 30.15 1021 10 16.0934 0 0
4:35 am 04:35 Partly Cloudy 63 17 58 14.3 84 84 ENE 3 6 30.15 1021 10 16.0934 0 0
4:55 am 04:55 Cloudy 63 17.3 58 14.6 84 84 ENE 3 6 30.15 1021 10 16.0934 0 0
5:15 am 05:15 Cloudy 63 17.3 58 14.5 84 84 ENE 5 7 30.15 1021 10 16.0934 0 0
5:35 am 05:35 Cloudy 63 17.3 58 14.5 84 84 ENE 5 7 30.15 1021 10 16.0934 0 0
5:55 am 05:55 Cloudy 64 18 59 15 83 83 Calm 30.15 1021 10 16.0934 0 0
6:15 am 06:15 Cloudy 64 17.5 58 14.5 83 83 Calm 30.15 1021 10 16.0934 0 0
6:35 am 06:35 Mostly Cloudy 63 17 57 14 83 83 Calm 30.15 1021 10 16.0934 0 0
6:55 am 06:55 Partly Cloudy 62 16.7 57 13.7 83 83 Calm 30.15 1021 10 16.0934 0 0
7:15 am 07:15 Clear 62 16.6 56 13.6 83 83 ENE 5 7 30.15 1021 10 16.0934 0 0
7:35 am 07:35 Sunny 62 16.6 57 13.8 84 84 ENE 5 7 30.15 1021 10 16.0934 0 0
7:55 am 07:55 Sunny 62 16.7 56 13.6 82 82 ENE 5 7 30.21 1023 10 16.0934 0 0
8:15 am 08:15 Sunny 63 17.2 56 13.6 80 80 ENE 5 7 30.21 1023 10 16.0934 0 0
8:35 am 08:35 Sunny 64 18 57 13.7 76 76 ESE 5 7 30.18 1022 10 16.0934 0 0
8:55 am 08:55 Sunny 67 19.5 58 14.4 73 73 ESE 6 9 30.18 1022 10 16.0934 0 0
9:15 am 09:15 Sunny 69 20.8 59 15 70 70 SE 5 7 30.18 1022 10 16.0934 0 0
9:35 am 09:35 Sunny 69 20.8 58 14.6 68 68 ESE 7 11 30.18 1022 10 16.0934 0 0
9:55 am 09:55 Sunny 69 20.8 58 14.3 66 66 ESE 7 11 30.18 1022 10 16.0934 0 0
10:15 am 10:15 Sunny 69 20.8 56 13.5 63 63 SSE 10 17 30.18 1022 10 16.0934 0 0
10:35 am 10:35 Sunny 74 23.3 59 15.1 60 60 SE 7 11 30.18 1022 10 16.0934 0 0
10:55 am 10:55 Partly Cloudy 69 20.8 56 13.6 64 64 ESE 8 13 30.18 1022 10 16.0934 0 0
11:15 am 11:15 Mostly Cloudy 69 20.8 57 13.7 64 64 E 3 6 30.18 1022 10 16.0934 0 0
11:35 am 11:35 Mostly Cloudy 72 22 58 14.4 62 62 Calm 30.18 1022 10 16.0934 0 0
11:55 am 11:55 Cloudy 74 23.6 59 15.1 59 59 SE 8 13 30.18 1022 10 16.0934 0 0
12:15 pm 12:15 Partly Cloudy 74 23.6 58 14.3 56 56 SE 8 13 30.15 1021 10 16.0934 0 0
12:35 pm 12:35 Partly Cloudy 77 25.1 58 14.2 51 51 E 7 11 30.15 1021 10 16.0934 0 0
12:55 pm 12:55 Sunny 77 25.1 57 14.1 51 51 SSE 7 11 30.15 1021 10 16.0934 0 0
1:15 pm 13:15 Sunny 80 26.5 58 14.4 47 47 ESE 3 6 30.15 1021 10 16.0934 0 0
1:35 pm 13:35 Sunny 80 26.5 58 14.5 48 48 SSE 6 9 30.12 1020 10 16.0934 0 0
1:55 pm 13:55 Sunny 80 26.5 57 14.1 46 46 ESE 3 6 30.12 1020 10 16.0934 0 0
2:15 pm 14:15 Partly Cloudy 80 26.5 58 14.3 47 47 SE 7 11 30.12 1020 10 16.0934 0 0
2:35 pm 14:35 Cloudy 80 26.5 58 14.3 47 47 SE 7 11 30.09 1019 10 16.0934 0 0
2:55 pm 14:55 Cloudy 80 26.5 58 14.5 48 48 Calm 30.09 1019 10 16.0934 0 0
3:15 pm 15:15 Cloudy 80 26.5 58 14.3 47 47 SSE 5 7 30.09 1019 10 16.0934 0 0
3:35 pm 15:35 Cloudy 81 27.2 58 14.3 45 45 SE 7 11 30.09 1019 10 16.0934 0 0
3:55 pm 15:55 Cloudy 80 26.5 58 14.4 47 47 SE 8 13 30.06 1018 10 16.0934 0 0
4:15 pm 16:15 Cloudy 80 26.5 58 14.6 48 48 SSE 8 13 30.06 1018 10 16.0934 0 0
4:35 pm 16:35 Cloudy 80 26.5 58 14.3 47 47 SSE 7 11 30.06 1018 10 16.0934 0 0
4:55 pm 16:55 Cloudy 80 26.5 58 14.4 47 47 S 9 15 30.06 1018 10 16.0934 0 0
5:15 pm 17:15 Cloudy 80 26.5 58 14.5 48 48 SSE 5 7 30.06 1018 10 16.0934 0 0
5:35 pm 17:35 Cloudy 80 26.5 58 14.7 48 48 SE 8 13 30.06 1018 10 16.0934 0 0
5:55 pm 17:55 Cloudy 80 26.5 59 14.8 49 49 SE 6 9 30.06 1018 10 16.0934 0 0
6:15 pm 18:15 Cloudy 80 26.5 60 15.7 52 52 SSE 6 9 30.06 1018 10 16.0934 0 0
6:35 pm 18:35 Cloudy 77 25.2 60 15.3 54 54 SE 8 13 30.06 1018 10 16.0934 0 0
6:55 pm 18:55 Cloudy 77 25.1 60 15.5 55 55 SE 8 13 30.06 1018 10 16.0934 0 0
7:15 pm 19:15 Cloudy 77 25.1 61 16 57 57 SE 9 15 30.06 1018 10 16.0934 0 0
7:35 pm 19:35 Cloudy 77 25.1 61 16.3 58 58 ESE 8 13 30.06 1018 10 16.0934 0 0
7:55 pm 19:55 Cloudy 75 23.8 60 15.5 60 60 ESE 7 11 30.06 1018 10 16.0934 0 0
8:15 pm 20:15 Mostly Cloudy 74 23.6 61 16.2 63 63 SE 9 15 30.06 1018 10 16.0934 0 0
8:35 pm 20:35 Partly Cloudy 74 23.6 62 16.9 66 66 SE 8 13 30.09 1019 10 16.0934 0 0
8:55 pm 20:55 Clear 74 23.6 63 17.4 68 68 SE 8 13 30.09 1019 10 16.0934 0 0
9:15 pm 21:15 Clear 74 23.1 63 17.3 70 70 SE 8 13 30.09 1019 10 16.0934 0 0
9:35 pm 21:35 Clear 71 21.6 61 16.2 71 71 Calm 30.09 1019 10 16.0934 0 0
9:55 pm 21:55 Clear 69 20.8 61 16 74 74 E 3 6 30.09 1019 10 16.0934 0 0
10:15 pm 22:15 Clear 69 20.8 62 16.4 76 76 E 3 6 30.09 1019 10 16.0934 0 0
10:35 pm 22:35 Clear 69 20.8 62 16.5 77 77 E 3 6 30.09 1019 10 16.0934 0 0
10:55 pm 22:55 Partly Cloudy 69 20.8 62 16.8 78 78 Calm 30.09 1019 10 16.0934 0 0
11:15 pm 23:15 Mostly Cloudy 69 20.8 63 17 79 79 SE 5 7 30.09 1019 10 16.0934 0 0
11:35 pm 23:35 Partly Cloudy 69 20.8 63 17.1 79 79 SE 3 6 30.09 1019 10 16.0934 0 0
11:55 pm 23:55 Mostly Cloudy 69 20.8 63 17.1 79 79 Calm 30.09 1019 10 16.0934 0 0

Powered by AerisWeather